Location: Benalto
(52.3088°N, 114.2787°W)
Time: 12:28:10
(UTC+00:00)

N. Korean satellite - Pass Details

Date: 06 December 2021
Orbit: 447 x 491 km, 97.3° (Epoch: 21 January)

Event Time Altitude Azimuth Distance (km) Brightness Sun altitude
Rises 11:42:10 0° 33° (NNE) 2,468 10.6 -33.7°
Reaches altitude 10° 11:45:46 10° 73° (ENE) 1,583 10.0 -33.2°
Maximum altitude 11:46:35 11° 87° (E) 1,541 9.9 -33.1°
Drops below altitude 10° 11:47:23 10° 101° (E) 1,578 9.9 -33.0°
Sets 11:50:57 0° 142° (SE) 2,443 10.5 -32.4°
